User: anonymous   Login
Location: Unspecified
(0.0000°N, 0.0000°E)
Time: 21:27:46
(UTC+00:00)
Language:

BLUEBIRD-SM005 - Orbit

View from above orbital plane
View from above orbital plane
View from above satellite
View from above satellite

Ground track
Ground track

The orbit is defined by the following mean orbital elements,

1 61046U          26145.13433742 +.00000000 +00000-0 +10191-2 0 00009
2 61046  52.9733  55.3805 0009842  54.4943 305.6968 15.20720001    01
Epoch (UTC): 25 May 2026 03:13:26
Eccentricity: 0.0009842
inclination: 52.9733°
perigee height: 497 km
apogee height: 510 km
right ascension of ascending node: 55.3805°
argument of perigee: 54.4943°
revolutions per day: 15.20720001
mean anomaly at epoch: 305.6968°

The dashed part of the orbit path shows where the satellite is in the earth's shadow,  

DLR